Location: ????????
(55.6333°N, 37.7000°E)
Time: 18:39:35
(UTC+00:00)

Daily predictions for brighter satellites

Satellite Brightness Start Highest point End
(mag) Time Altitude Azimuth Time Altitude Azimuth Time Altitude Azimuth
SPOT 3 Rocket 3.6 18:23:32 10° SSE 18:28:39 72° ENE 18:33:47 10° NNW
Cosmos 1933 3.3 18:25:58 10° SSW 18:29:50 84° WNW 18:33:43 10° N
NOSS 2-3 (C) 3.8 18:26:59 10° WSW 18:30:35 64° NNW 18:34:53 10° NE
ERS-1 Rocket 3.7 18:27:43 10° S 18:32:36 52° W 18:37:32 10° NNW
Okean-O 3.5 18:28:45 10° S 18:32:59 47° W 18:37:16 10° NNW
NOSS 3-1 (C) 3.8 18:33:44 10° S 18:38:03 32° ESE 18:43:11 10° ENE
Cosmos 1743 3.9 18:39:32 10° NNW 18:42:40 34° W 18:45:47 10° SSW
Cosmos 2333 Rocket 3.9 18:39:03 10° NNW 18:43:55 27° NNE 18:48:45 10° E
Spot 2 Rocket 3.9 18:39:08 10° S 18:44:07 64° WSW 18:49:09 10° NNW
ISS -2.8 18:44:16 10° W 18:47:19 32° SSW 18:50:22 10° SE
Lacrosse 4 Rocket 3.3 18:44:09 10° WSW 18:47:49 34° NW 18:51:34 10° NNE
ARIANE 6 FM1 Upper Stage 2.7 18:45:19 10° SSW 18:49:13 52° SE 18:53:10 10° ENE
IKONOS-2 4.4 18:45:12 10° NNE 18:49:20 81° ESE 18:53:27 10° SSW
Cosmos 1821 Rocket 4.3 18:43:43 10° N 18:49:46 56° ENE 18:55:44 10° SSE
Cosmos 1833 Rocket 2.8 18:44:33 10° SSW 18:50:05 60° ESE 18:55:39 10° NE
Cosmos 2218 Rocket 4.1 18:48:01 10° N 18:54:27 83° ENE 19:00:47 10° SSE
Cosmos 1356 Rocket 3.6 18:53:54 10° S 18:57:53 51° E 19:01:53 10° NNE
Cosmos 2219 Rocket 4.3 18:55:47 10° NNW 19:00:09 22° NNE 19:04:30 10° ENE
Cosmos 1733 3.6 18:57:12 10° NNW 19:00:10 43° W 19:03:07 10° S
Cosmos 158 Rocket 4.1 18:55:39 10° SSW 19:00:59 86° ESE 19:06:25 10° NNE
NOSS 3-1 (A) 4.1 19:03:47 10° S 19:07:47 25° ESE 19:12:25 10° ENE
USA 234 3.3 19:01:45 10° ENE 19:08:10 55° SSE 19:14:34 10° SW
Cosmos 2058 Rocket 4.1 19:04:11 10° SSW 19:08:31 49° WNW 19:12:51 10° N
Helios 1A 4.4 19:06:19 10° N 19:10:06 38° WNW 19:13:50 10° SW
Cosmos 1980 Rocket 2.3 19:04:54 10° NW 19:10:30 77° WSW 19:15:43 12° SSE
Cosmos 1805 3.1 19:10:42 10° N 19:14:09 61° ENE 19:17:00 14° SSE
Cosmos 1812 Rocket 3.5 19:12:24 10° S 19:16:40 70° E 19:21:00 10° NNE
Terra 3.7 19:14:16 10° SSW 19:18:09 25° W 19:22:04 10° NW
SWARM A 4.3 19:15:04 10° S 19:18:26 89° W 19:21:51 10° N
Meteor 1-26 Rocket 4.5 19:14:06 10° SSW 19:20:00 83° WNW 19:26:05 10° NNE
Cosmos 2181 Rocket 4.1 19:14:39 10° S 19:20:53 71° E 19:27:16 10° NNE
SL-16 R/B 3.0 19:16:04 10° NNW 19:21:34 47° NE 19:27:02 10° ESE
Cosmos 2208 Rocket 4.1 19:16:39 10° S 19:21:57 62° ESE 19:27:12 10° NNE
Meteor 1-11 Rocket 3.9 19:18:12 10° N 19:23:41 60° ENE 19:28:28 14° SSE
ATLAS CENTAUR R/B 1.1 19:20:03 10° SW 19:23:48 86° NW 19:27:41 10° NE
Cosmos 1315 Rocket 2.8 19:20:20 10° S 19:24:11 65° E 19:28:03 10° NNE
SL-24 R/B 4.1 19:21:56 10° NNE 19:26:15 69° ESE 19:30:40 10° S
Cosmos 2344 4.0 19:19:14 10° WSW 19:26:29 65° NNW 19:34:13 10° ENE
DELTA 2 DEB (DPAF) 4.1 19:26:15 10° NNE 19:30:08 50° ESE 19:33:24 14° S
Cosmos 2322 Rocket 3.3 19:25:10 10° NNW 19:30:29 38° NE 19:35:45 10° ESE
Cosmos 2237 4.5 19:25:12 10° NNW 19:30:55 67° NE 19:36:07 12° SE
BlueWalker 3 3.7 19:32:14 10° WSW 19:34:36 17° SW 19:36:16 13° S
Meteor 1-14 Rocket 4.4 19:30:30 10° NNW 19:36:05 73° W 19:41:17 12° S
Genesis I 2.9 19:34:03 10° NW 19:36:47 52° NE 19:39:01 14° ESE
Cosmos 1975 3.6 19:34:54 10° N 19:38:21 35° ENE 19:40:56 15° SE
Cosmos 1697 Rocket 4.2 19:37:33 10° NW 19:42:15 27° WSW 19:46:55 10° SSW
Ariane Rocket 4.2 19:37:38 10° SSW 19:42:17 36° W 19:46:59 10° NNW
Nadezhda 3 Rocket 4.2 19:37:18 13° SSE 19:42:38 56° E 19:48:44 10° NNE
CZ-4C R/B 3.8 19:39:41 10° NNE 19:43:10 38° E 19:45:23 18° SSE
CENTAUR R/B 3.6 19:36:51 10° NW 19:44:21 65° NNE 19:53:19 10° ESE
Cosmos 1934 Rocket 4.3 19:39:40 10° N 19:45:50 59° ENE 19:51:02 15° SSE
ATLAS 3B R/B 4.0 19:42:57 14° SSE 19:47:40 26° ESE 19:53:48 10° ENE
Cosmos 2278 4.0 19:42:12 10° NNW 19:47:50 63° NE 19:52:56 13° SE
Cosmos 1570 Rocket 4.3 19:43:18 10° SW 19:48:33 72° WNW 19:53:52 10° NNE
Cosmos 1238 Rocket 2.7 19:46:08 10° SSW 19:49:44 65° WNW 19:52:56 10° N
ARIANE 5 R/B 2.9 19:46:27 16° SE 19:49:46 57° ENE 19:54:04 10° N
Cosmos 2360 Rocket 3.2 19:44:56 10° NNW 19:50:17 42° NE 19:55:37 10° ESE
Cosmos 1842 Rocket 4.3 19:48:46 17° SSE 19:51:33 37° E 19:55:32 10° NNE
Meteor 2-6 Rocket 4.4 19:48:53 10° SSW 19:54:45 81° WNW 20:00:28 10° NNE
Cosmos 2369 4.0 19:49:37 10° NW 19:55:12 59° WSW 19:59:34 16° SSE
Cosmos 1766 3.5 19:52:22 10° N 19:55:44 47° ENE 19:57:53 19° SE
Cosmos 1470 4.0 19:54:00 10° N 19:57:07 27° ENE 19:59:30 14° ESE
Cosmos 1908 3.9 19:55:40 10° N 19:58:40 33° ENE 20:00:37 17° SE
Cosmos 1536 3.5 19:56:04 10° NNW 19:59:44 45° W 20:02:41 14° SSW
SeaSat 1 3.4 19:57:02 14° S 20:00:48 37° WSW 20:05:21 10° NW
CZ-2C R/B 4.2 19:58:41 10° NNE 20:02:52 42° E 20:05:39 19° SSE
Cosmos 2221 3.0 20:01:19 10° SSW 20:05:26 57° WNW 20:09:35 10° N
Cosmos 2082 Rocket 2.3 20:00:19 11° SSW 20:05:39 59° ESE 20:11:12 10° NE
Cosmos 405 Rocket 2.3 20:02:50 10° NNW 20:06:17 85° W 20:08:21 22° S
Okean 1 4.1 20:08:24 10° SSW 20:11:56 44° WNW 20:15:29 10° N
COBE Rocket 4.0 20:11:56 10° NNE 20:17:03 86° WNW 20:21:35 14° SSW
Meteor 1-10 Rocket 4.3 20:11:55 13° S 20:17:11 87° ESE 20:23:03 10° NNE
Cosmos 773 Rocket 4.2 20:13:03 10° SW 20:18:11 71° WNW 20:23:19 10° NNE
Okean 3 Rocket 3.5 20:14:29 10° NNW 20:18:55 88° WSW 20:21:53 21° S
Cosmos 1674 2.4 20:18:53 21° SW 20:19:58 39° WNW 20:22:06 10° N
COSMOS 2406 3.5 20:17:11 16° S 20:21:35 52° ESE 20:27:07 10° NE
Landsat 5 3.9 20:17:44 10° NNE 20:21:46 46° E 20:24:14 21° SSE
Cosmos 1766 Rocket 4.4 20:17:44 10° NNW 20:21:55 44° W 20:25:10 16° SSW
NOSS 3-2 (A) 4.4 20:16:07 10° NW 20:22:40 61° NNE 20:30:46 10° ESE
ISS -1.6 20:21:48 10° WSW 20:23:18 13° SW 20:23:18 13° SW
BREEZE-M R/B 4.3 20:15:51 10° W 20:25:06 30° SW 20:27:31 19° S
USA 59 Rocket 0.1 20:24:31 26° SSE 20:25:11 29° SE 20:27:49 10° ENE
Cosmos 220 Rocket 4.2 20:21:49 10° SW 20:25:52 65° WNW 20:29:56 10° NNE
Cosmos 2084 Rocket 3.5 20:21:55 10° SW 20:26:12 82° NW 20:30:26 10° NE
NOSS 3-1 (C) 3.5 20:23:08 10° WSW 20:28:14 74° NNW 20:34:40 10° NE
ARIANE 6 FM1 Upper Stage 3.7 20:24:31 10° W 20:28:26 48° NNW 20:32:25 10° NE
Cosmos 2333 Rocket 2.4 20:23:22 10° NNW 20:29:08 76° NE 20:33:55 15° SE
Cosmos 1842 3.9 20:29:20 22° SE 20:30:52 33° E 20:34:02 10° NNE
Cosmos 1833 Rocket 4.1 20:29:01 10° WSW 20:34:18 39° NW 20:39:37 10° NNE
NOSS 2-1 (E) 3.5 20:35:16 27° SSE 20:36:04 32° SE 20:38:49 10° ENE
MetOp-A 4.3 20:32:58 19° S 20:36:36 58° WSW 20:41:44 10° NNW
Meteor 2-13 Rocket 4.4 20:35:04 17° S 20:39:57 85° E 20:46:07 10° NNE
Cosmos 1455 4.2 20:40:47 10° NE 20:41:58 12° ENE 20:43:09 10° E
Cosmos 1300 3.5 20:40:34 10° N 20:43:28 32° ENE 20:45:10 19° ESE
Cosmos 1151 Rocket 3.7 20:42:48 21° SSE 20:45:06 39° E 20:49:04 10° NNE
ALOS 2 2.6 20:42:21 22° SSE 20:45:08 85° WSW 20:49:34 10° NNW
Cosmos 2219 Rocket 2.8 20:39:46 10° NNW 20:45:20 55° NE 20:50:50 10° SE
Cosmos 2333 4.4 20:41:11 10° NNW 20:46:54 69° NE 20:51:55 13° SE
USA 234 3.3 20:44:56 10° ENE 20:51:32 88° NNW 20:58:06 10° WSW
NOSS 2-1 (D) 2.9 20:50:18 27° SSW 20:51:41 48° SE 20:54:35 10° ENE
Meteor 2-4 Rocket 3.8 20:48:50 20° S 20:52:49 69° E 20:58:38 10° NNE
Meteor 1-27 Rocket 3.8 20:48:32 16° SSW 20:53:03 79° WNW 20:58:37 10° NNE
Cosmos 1980 Rocket 4.1 20:50:04 10° WNW 20:53:37 17° W 20:57:10 10° SW
NOSS 3-1 (A) 3.2 20:52:39 10° SW 20:57:44 86° NW 21:04:08 10° NE
Sich 1 3.2 20:55:13 10° NNW 20:59:25 60° W 21:01:52 23° S
ATLAS CENTAUR R/B 3.4 20:57:03 10° W 21:00:24 28° NNW 21:03:49 10° NE
Cosmos 1371 Rocket 4.4 20:55:21 10° NNW 21:00:42 64° ENE 21:05:13 14° SE
CZ-2C R/B 4.3 20:56:24 10° ESE 21:00:43 27° NE 21:05:01 10° N
BREEZE-M DEB (TANK) 3.9 20:53:17 10° W 21:03:14 35° SW 21:05:28 22° SSE
SL-16 R/B 2.7 21:00:18 10° NW 21:05:44 48° WSW 21:09:15 21° S
Cosmos 2056 Rocket 3.7 21:01:03 10° NNW 21:06:24 70° ENE 21:10:41 16° SE
PSLV R/B 3.7 21:02:58 10° NNE 21:07:06 56° E 21:09:23 24° S
Genesis I 4.1 21:07:44 10° WNW 21:09:43 19° WSW 21:09:43 19° WSW
Cosmos 1624 Rocket 4.1 21:05:14 10° NNW 21:10:28 72° ENE 21:14:39 16° SE
NOSS 2-1 (C) 2.5 21:09:43 22° SW 21:11:34 70° SE 21:14:31 10° NE
Cosmos 1975 4.2 21:10:28 10° NNW 21:13:34 25° W 21:15:35 16° SW
Cosmos 1500 Rocket 4.0 21:09:47 10° NNW 21:14:02 53° W 21:16:34 23° SSW
Cosmos 1538 Rocket 3.9 21:10:27 19° SSW 21:14:11 81° ESE 21:19:22 10° NNE
Cosmos 2322 Rocket 2.3 21:09:16 10° NW 21:14:52 63° WSW 21:18:38 21° SSE
NOSS 3-2 (C) 4.4 21:09:31 10° NW 21:16:07 62° NNE 21:24:14 10° ESE
Exosat Rocket 3.9 21:11:22 10° NW 21:16:20 50° WSW 21:19:21 22° S
Cosmos 1459 Rocket 4.4 21:11:35 10° N 21:17:38 58° ENE 21:22:37 16° SSE
H-2A R/B 3.6 21:15:01 12° SE 21:18:13 34° ENE 21:21:44 10° N
Cosmos 1707 2.5 21:18:01 26° SSW 21:19:42 67° WNW 21:23:04 10° N
COSMOS 2428 3.7 21:14:37 10° NNW 21:20:10 47° NE 21:25:41 10° ESE
Cosmos 1633 Rocket 3.5 21:16:37 10° N 21:20:55 56° ENE 21:23:51 19° SSE
Geosat FO 4.1 21:21:06 31° SSE 21:22:23 70° WSW 21:25:25 10° NW
Cosmos 1408 Rocket 4.5 21:18:51 10° NNW 21:22:53 37° W 21:25:23 20° SSW
Cosmos 44 Rocket 4.1 21:18:40 10° NW 21:23:19 50° NNE 21:28:03 10° ESE
Meteor 2-10 Rocket 3.9 21:19:51 10° NNW 21:25:35 71° ENE 21:30:04 17° SSE
ARIANE 5 R/B 4.2 21:23:51 14° SW 21:26:26 23° W 21:29:57 10° NW
Cosmos 1066 Rocket 4.3 21:23:03 21° S 21:26:55 80° ESE 21:32:43 10° NNE
Cosmos 1805 Rocket 4.4 21:25:52 10° NNW 21:30:02 41° W 21:32:35 21° SSW
Cosmos 1470 3.7 21:28:33 10° NNW 21:31:46 31° W 21:33:25 21° SW
Cosmos 2173 Rocket 4.1 21:25:54 10° N 21:32:19 75° ENE 21:37:12 18° SSE
Cosmos 2360 Rocket 2.4 21:29:00 10° NW 21:34:28 54° WSW 21:38:04 21° S
CENTAUR R/B 3.3 21:27:30 10° NW 21:35:23 65° SW 21:44:22 10° SSE
Meteor 1-18 Rocket 4.3 21:32:07 20° SSW 21:36:16 86° WNW 21:42:13 10° NNE
GP-B 3.1 21:32:17 10° N 21:36:42 78° W 21:39:19 24° S
ATLAS 3B R/B 3.0 21:30:06 11° SW 21:37:25 76° SE 21:45:18 10° NE
USA 229 DEB 3.7 21:33:24 18° SSW 21:37:58 59° SE 21:44:43 10° NE
USA 229 3.7 21:33:32 18° SSW 21:38:04 58° SE 21:44:48 10° NE
ASTEX 1 3.4 21:38:32 10° N 21:43:31 86° W 21:46:45 22° S
Spot 1 4.4 21:40:17 10° N 21:44:28 61° WNW 21:47:33 19° SW
GEOS 3 Rocket 3.5 21:41:31 10° SE 21:46:38 84° SW 21:51:50 10° NW
Cosmos 1758 3.6 21:43:06 10° N 21:46:54 56° ENE 21:49:25 19° SSE
Cosmos 1328 Rocket 3.8 21:46:16 23° SSE 21:48:47 59° E 21:53:04 10° NNE
Cosmos 2082 Rocket 3.4 21:44:44 10° WSW 21:50:00 40° NW 21:55:19 10° NNE
In-Cosmos 22 4.5 21:49:28 20° S 21:53:24 65° E 21:59:08 10° NNE
COSMOS 2455 4.5 21:49:30 10° NW 21:55:05 37° NNE 22:00:39 10° E
Cosmos 2112 Rocket 4.1 22:00:57 21° S 22:04:24 64° ESE 22:09:35 10° NNE
Cosmos 2237 Rocket 3.3 22:00:12 10° NNW 22:05:37 45° NE 22:11:02 10° ESE
COSMOS 2406 4.2 22:00:35 10° WSW 22:06:02 44° NW 22:11:31 10° NNE
NOSS 2-2 (D) 3.9 22:08:50 10° NW 22:12:18 59° NNE 22:16:50 10° ESE
Cosmos 2061 Rocket 4.4 22:06:17 10° N 22:12:44 67° ENE 22:18:49 11° SSE
Cosmos 2333 Rocket 3.4 22:08:14 10° NW 22:12:56 27° WSW 22:15:53 18° SSW
NOSS 3-2 (A) 4.0 22:06:50 10° NW 22:13:49 64° SW 22:22:17 10° SSE
USA 59 Rocket 0.4 22:11:10 10° W 22:14:02 39° NNW 22:16:54 10° NE
Cosmos 1455 1.7 22:11:46 10° NNW 22:14:32 52° W 22:15:31 32° SSW
Cosmos 1300 4.0 22:14:12 10° NW 22:16:39 21° W 22:17:48 17° WSW
Cosmos 2322 3.7 22:14:38 10° NW 22:20:21 78° WSW 22:26:00 10° SSE
SL-14 R/B 3.2 22:18:45 23° S 22:21:02 80° E 22:24:56 10° NNE
Cosmos 1953 3.5 22:18:29 10° N 22:21:54 34° ENE 22:25:18 10° SE
Cosmos 1666 Rocket 4.4 22:18:22 10° NNW 22:22:23 37° W 22:24:54 20° SSW
Cosmos 1151 Rocket 4.4 22:19:28 13° SW 22:22:36 30° WNW 22:26:22 10° N
NOSS 2-2 (C) 3.3 22:19:39 10° NW 22:23:18 88° SW 22:28:13 10° SE
Cosmos 1110 Rocket 4.0 22:18:10 10° NNW 22:23:32 83° WSW 22:28:27 12° SSE
NOSS 2-1 (E) 4.0 22:22:13 10° W 22:25:10 38° NNW 22:28:04 10° NE
Cosmos 1452 Rocket 3.5 22:22:28 10° NNW 22:27:45 90° ENE 22:33:00 10° SSE
Cosmos 1437 Rocket 4.1 22:25:52 13° SSE 22:28:19 27° E 22:31:19 10° NE
Meteor 1-13 Rocket 4.5 22:24:25 18° S 22:28:54 74° E 22:34:51 10° NNE
Cosmos 2219 Rocket 2.8 22:23:58 10° NW 22:29:08 38° WSW 22:32:40 18° SSW
Cosmos 494 Rocket 4.0 22:27:54 20° SSW 22:31:29 71° ESE 22:36:39 10° NNE
Cosmos 923 Rocket 4.4 22:27:15 15° SW 22:31:39 61° WNW 22:36:57 10° NNE
USA 234 3.4 22:28:00 10° E 22:34:34 82° N 22:41:08 10° W
IRIDIUM 114 4.5 22:31:47 16° S 22:35:55 73° E 22:41:09 10° N
ATLAS CENTAUR R/B 4.0 22:34:29 10° NW 22:37:32 22° N 22:40:36 10° NE
Landsat 4 4.4 22:38:50 22° SW 22:39:49 26° W 22:42:23 10° NW
CZ-2C R/B 2.6 22:36:30 16° S 22:40:36 67° WSW 22:45:47 10° NNW
SL-16 R/B 4.1 22:35:56 10° NNW 22:41:04 33° NE 22:46:09 10° E
GRACE-FO 1 4.5 22:38:57 22° S 22:41:07 74° W 22:44:40 10° N
GRACE-FO 2 4.5 22:39:22 22° S 22:41:32 73° W 22:45:06 10° N
SL-24 R/B - RUBIN 2 4.4 22:37:06 10° SW 22:43:21 77° NW 22:48:58 10° NE
Cosmos 2016 Rocket 4.1 22:37:27 10° NNW 22:43:31 62° W 22:48:30 16° S
Cosmos 1048 Rocket 4.3 22:39:54 18° S 22:43:38 57° ESE 22:48:39 10° NNE
Cosmos 1680 Rocket 3.8 22:39:24 15° SW 22:43:41 63° WNW 22:48:53 10° NNE
IRIDIUM 103 4.4 22:40:55 17° S 22:45:03 84° E 22:50:20 10° N
Cosmos 1833 4.4 22:42:21 15° SW 22:47:13 76° NW 22:53:03 10° NNE
Cosmos 2297 Rocket 3.7 22:44:23 10° SSE 22:48:58 26° ESE 22:53:34 10° NE
Cosmos 1470 Rocket 4.4 22:46:28 10° NNW 22:50:25 35° W 22:53:03 18° SSW
H-2A R/B 3.3 22:50:24 19° SSW 22:52:36 32° W 22:56:08 10° NNW
Cosmos 1331 Rocket 4.2 22:49:33 10° NW 22:54:38 55° WSW 22:59:06 13° S
Cosmos 2322 Rocket 4.1 22:55:05 10° WNW 22:57:47 14° W 23:00:24 10° SW
Cosmos 1302 Rocket 4.0 22:53:13 10° NNW 22:58:28 86° ENE 23:03:42 10° SSE
Aureole 3 Rocket 4.1 22:54:32 10° N 22:59:27 46° ENE 23:03:07 10° SE
Cosmos 921 Rocket 4.5 22:57:55 10° SSE 23:01:25 27° E 23:04:58 10° NE
Cosmos 1933 Rocket 3.9 22:57:46 10° NNW 23:02:06 52° W 23:05:27 16° SSW
IRIDIUM 106 4.4 22:59:11 16° SSW 23:03:23 73° W 23:08:38 10° N
COSMOS 2428 3.0 22:59:00 10° NW 23:04:29 48° WSW 23:09:57 10° S
Cosmos 44 Rocket 3.5 23:00:11 10° NW 23:04:47 47° SW 23:09:27 10° SSE
NOSS 3-2 (C) 4.0 23:00:19 10° NW 23:07:19 63° SW 23:15:45 10° SSE
SL-16 R/B 4.2 23:03:37 10° ESE 23:09:06 35° NE 23:14:39 10° N
Cosmos 2292 Rocket 4.3 23:06:33 11° S 23:11:54 61° E 23:16:12 10° NNE
Cosmos 1980 3.7 23:07:07 10° NW 23:12:49 79° WSW 23:18:28 10° SSE
Cosmos 2227 Rocket 4.1 23:10:22 10° SSE 23:14:24 21° E 23:18:27 10° NE
Cosmos 1869 Rocket 3.8 23:10:16 10° NNW 23:14:39 58° W 23:18:29 13° S
IDEFIX/ARIANE 42P 2.9 23:09:32 10° NNE 23:14:46 62° ESE 23:19:43 11° S
USA 238 DEB 4.0 23:08:42 10° NW 23:15:53 89° NE 23:23:47 10° SE
USA 238 4.0 23:08:49 10° NW 23:16:00 88° NE 23:23:53 10° SE
Cosmos 2360 Rocket 4.2 23:15:34 10° WNW 23:17:13 11° W 23:18:52 10° WSW
Cosmos 1515 Rocket 4.1 23:14:53 15° SW 23:18:16 47° WNW 23:22:32 10° N
NOSS 0 Rocket 4.2 23:13:34 10° NW 23:19:37 52° WSW 23:25:36 10° S
Resurs 1-4 Rocket 3.3 23:15:34 10° NNE 23:20:26 37° E 23:25:15 10° SSE
Meteor 1-12 Rocket 4.5 23:15:03 10° NNW 23:20:35 56° W 23:25:58 11° S
CENTAUR R/B 4.4 23:18:53 10° WNW 23:25:08 24° WSW 23:31:24 11° SSW
CZ-2C R/B 3.6 23:21:59 10° N 23:27:41 62° WNW 23:32:58 12° SW
Okean 2 3.7 23:24:22 11° S 23:28:07 61° E 23:32:02 10° NNE
ATLAS 3B R/B 3.7 23:21:09 10° W 23:28:43 56° NNW 23:36:30 10° ENE
USA 229 DEB 4.2 23:22:41 10° WSW 23:29:00 60° NNW 23:36:08 10° NE
USA 229 4.2 23:22:47 10° WSW 23:29:05 60° NNW 23:36:13 10° NE
H-2A R/B 2.3 23:25:11 10° NNE 23:29:19 62° ESE 23:33:14 11° S
Meteor 1-21 4.2 23:24:56 13° SSW 23:30:03 82° WNW 23:35:44 10° NNE
NOSS 2-2 (E) 3.7 23:30:01 10° WNW 23:33:39 49° SW 23:38:32 10° SSE
NPP 3.8 23:31:51 10° NNE 23:37:17 78° ESE 23:42:42 10° SSW
Cosmos 1733 Rocket 3.0 23:33:27 10° NNW 23:37:54 81° W 23:42:19 10° S
Cosmos 1992 Rocket 4.0 23:34:19 10° NNW 23:39:33 83° WSW 23:44:45 10° SSE
Cosmos 614 Rocket 4.3 23:34:34 11° S 23:39:35 61° ESE 23:44:44 10° NNE
SAR-Lupe-3 4.0 23:38:10 10° SSE 23:41:06 82° WSW 23:44:05 10° NNW
COSMOS 2455 2.9 23:35:38 10° NW 23:41:43 89° ENE 23:47:45 10° SE
Lacrosse 4 Rocket 3.3 23:41:36 10° NNW 23:45:23 35° NE 23:49:13 10° ESE
ADEOS II 3.2 23:40:36 10° NNE 23:45:31 39° E 23:50:24 10° SSE
GENESIS II 3.4 23:42:37 10° NW 23:45:35 60° SW 23:48:31 10° SE
Cosmos 1862 Rocket 4.0 23:41:46 10° S 23:46:09 63° E 23:50:34 10° NNE
Cosmos 2228 Rocket 3.6 23:43:08 10° S 23:47:39 63° E 23:52:09 10° NNE
ARIANE 6 FM1 Upper Stage 3.6 23:44:02 10° NW 23:48:03 52° NNE 23:52:09 10° ESE
Cosmos 1703 3.4 23:44:54 10° S 23:48:19 59° E 23:51:45 10° NNE
Cosmos 2237 Rocket 2.4 23:44:21 10° NW 23:49:49 50° WSW 23:55:14 10° S
ALOS 3.5 23:45:40 10° NNE 23:49:55 36° E 23:54:08 10° SSE
USA 281 3.7 23:46:21 10° NE 23:52:49 56° ESE 23:59:15 10° S
CZ-2D R/B 2.7 23:48:15 10° NNE 23:53:41 60° ESE 23:59:04 10° S
